Location: Banios
(43.0451°N, 0.2335°E)
Time: 07:47:17
(UTC+00:00)

A-11 Canister half - Pass Details

Date: 12 May 2021
Orbit: 1527 x 1681 km, 47.3° (Epoch: 22 June)

Event Time Altitude Azimuth Distance (km) Brightness Sun altitude
Rises 17:48:06 0° 288° (WNW) 4,905 13.6 13.7°
Reaches altitude 10° 17:53:18 10° 266° (W) 3,931 13.0 12.8°
Maximum altitude 17:57:56 14° 238° (WSW) 3,602 11.7 12.0°
Drops below altitude 10° 18:02:35 10° 210° (SSW) 3,934 11.4 11.1°
Sets 18:07:52 0° 187° (S) 4,912 11.6 10.2°
